Wetbulb
56.38 56.86 56.03 53.96 53.23 52.10 52.24 55.54 55.42 58.34 56.47 54.43 50.86 51.48 52.38 50.34 54.76 56.04 54.98 54.66 52.28 50.96 50.13 50.21 50.41 50.37 51.02 53.91 52.24 49.77 53.44 52.55 51.45 51.13 52.86 52.60 54.35 52.53 52.00 50.37 48.22 49.52 49.48 49.80
56.50 56.68 55.79 53.84 52.98 52.68 51.59 56.14 55.80 58.37 56.68 50.19 51.46 52.43 51.98 53.99 54.07 54.53 55.42 53.54 54.13 52.35 51.48 51.33 50.71 51.27 55.27 54.10 53.68 52.55 54.50 51.97 49.38 49.81 51.84 54.24 53.31 52.86 51.45 50.97 51.52 49.83 47.86 50.00
56.50 56.70 55.50 53.74 53.18 52.91 52.72 56.52 53.91 56.43 55.35 52.51 51.92 51.46 52.23 51.88 54.99 54.28 56.35 55.71 55.77 54.79 53.29 54.37 53.84 54.00 55.03 56.07 56.44 58.93 58.11 50.65 51.49 49.01 50.40 52.65 51.46 52.24 52.41 51.55 49.48 49.14 50.03 51.69
56.52 56.61 55.69 53.96 53.36 52.91 51.91 55.77 53.90 53.37 52.74 53.07 52.37 52.52 52.78 51.62 53.26 56.57 56.95 55.50 55.17 55.20 53.09 53.27 53.06 53.96 53.98 54.20 58.47 54.83 55.52 51.83 51.43 50.73 51.63 51.69 52.10 51.76 51.96 51.01 52.16 49.98 51.30 50.87
56.54 56.82 55.83 54.34 53.73 52.61 55.29 54.00 54.11 54.70 53.28 53.33 54.45 50.83 54.31 53.22 54.44 54.85 54.61 54.31 54.94 56.14 54.24 54.50 53.32 54.78 55.40 54.44 54.40 54.16 53.19 52.14 52.12 50.80 51.41 51.77 50.90 52.46 52.92 53.22 53.27 51.69 53.41 54.94
56.40 56.62 55.89 54.37 54.08 53.26 54.16 54.38 55.67 54.32 50.26 53.37 52.05 52.75 53.19 54.04 56.39 56.52 57.04 55.77 55.88 54.29 54.78 56.51 56.64 55.98 56.30 55.84 55.19 53.50 53.57 52.79 51.75 49.12 49.65 50.49 48.27 51.80 53.76 56.85 58.23 56.86 54.02 57.39
55.70 56.18 56.04 54.68 54.47 53.95 52.09 52.99 53.65 53.56 52.73 53.70 53.08 52.65 53.01 53.44 54.39 54.58 56.04 56.99 57.09 56.31 57.77 56.84 57.42 56.39 55.94 55.80 53.95 53.89 52.91 52.87 51.86 49.88 50.05 43.23 51.25 59.09 56.08 58.51 58.43 59.06 58.05 59.25
55.36 55.66 55.51 54.96 55.11 54.55 52.31 53.37 54.06 53.25 52.36 53.33 53.18 53.07 52.08 53.92 55.09 55.19 55.51 56.31 56.87 57.12 56.62 54.90 53.61 52.55 52.48 52.76 51.97 52.66 53.01 52.93 49.34 47.87 47.33 48.36 54.28 58.27 58.43 57.75 56.95 60.41 59.87 61.11
55.17 55.46 55.05 54.67 54.87 54.70 53.47 53.50 54.73 54.17 52.05 53.00 53.69 52.38 52.00 52.64 53.11 55.53 55.43 57.80 58.00 57.57 54.76 53.44 49.65 49.11 49.29 49.37 51.85 52.56 51.90 53.02 51.22 47.39 45.07 43.82 52.19 59.75 59.96 60.53 52.85 61.66 62.10 61.42
54.86 54.93 54.62 54.32 54.95 55.08 53.53 53.70 54.39 54.25 51.66 54.26 53.58 53.42 52.42 53.39 53.13 53.80 53.69 54.50 56.34 56.66 54.14 51.09 49.93 49.65 51.18 48.74 48.94 50.52 51.83 50.39 49.08 48.44 47.46 50.31 53.94 59.19 61.08 51.59 54.13 62.46 62.95 63.18
54.63 54.48 54.16 54.53 54.57 55.45 53.78 53.52 54.96 54.29 52.75 53.96 54.46 55.04 54.18 53.88 53.76 53.18 53.59 54.35 55.09 55.46 52.82 51.90 51.12 50.62 51.57 51.39 52.14 51.39 51.75 50.46 49.34 48.59 47.30 45.74 57.80 58.67 56.34 59.57 61.31 63.54 64.31 64.13
54.27 53.92 53.76 53.84 54.31 54.86 53.92 52.21 54.01 54.86 53.43 54.21 55.32 57.19 58.24 57.52 57.20 55.14 52.96 53.17 53.41 55.79 53.76 52.42 52.44 51.62 51.95 50.95 49.27 52.17 50.30 52.84 52.97 52.09 52.96 56.24 57.74 58.04 61.39 61.35 63.08 62.91 64.49 62.96
53.63 53.26 53.37 53.68 53.90 54.31 53.41 50.97 52.64 53.63 53.23 54.60 53.82 55.15 56.71 57.38 57.81 59.64 53.48 53.58 54.67 55.16 55.30 54.85 53.76 51.91 52.97 50.49 50.66 50.93 52.51 53.77 53.95 52.91 55.30 56.37 57.43 58.37 59.45 61.59 60.69 60.46 60.72 60.24
52.78 52.81 52.70 53.34 53.77 54.00 53.45 51.27 52.62 53.14 53.08 50.11 53.03 56.40 55.35 56.90 57.09 56.90 56.63 55.88 54.93 55.58 55.68 54.86 54.08 52.87 52.65 51.99 51.13 51.04 53.67 53.89 53.57 53.15 54.97 56.20 57.30 57.99 59.39 58.94 59.52 59.50 59.57 59.60
52.39 52.24 52.37 53.10 53.53 53.67 53.78 52.11 52.83 54.16 52.63 50.07 51.75 54.69 55.42 56.26 55.70 56.30 56.10 55.88 55.29 55.23 53.95 53.36 51.90 53.02 51.99 51.36 51.39 50.96 53.62 54.30 51.54 50.72 58.42 58.66 58.45 58.87 59.17 59.01 58.93 59.60 59.39 59.14
52.16 51.95 52.04 52.41 52.98 52.72 52.68 53.58 54.43 54.32 54.66 51.18 48.29 52.85 54.06 55.52 55.35 55.00 54.55 55.26 54.28 54.80 54.33 53.44 53.42 52.42 53.49 50.76 49.92 54.71 54.56 54.50 55.69 56.40 57.03 57.93 59.14 59.59 59.41 59.42 59.32 59.69 59.71 59.91
51.75 51.65 51.90 52.06 51.98 52.47 51.12 52.76 53.41 52.18 54.31 51.37 48.31 49.56 53.39 53.30 54.02 54.47 54.81 54.50 54.26 55.65 53.59 52.95 53.22 53.21 53.49 51.72 48.93 55.29 56.04 56.73 57.09 57.16 57.69 56.93 58.22 58.51 60.05 59.72 59.82 58.57 59.96 60.27
51.34 51.68 51.77 51.81 51.80 51.52 52.00 55.15 52.63 53.06 52.20 52.12 47.62 48.47 50.87 53.35 52.74 52.26 53.45 53.84 54.58 53.27 53.49 52.97 53.01 52.09 52.55 49.17 53.78 55.13 55.16 56.03 56.64 57.67 57.79 58.02 59.47 59.21 59.35 59.68 59.33 58.83 58.72 59.17
51.09 51.32 52.21 52.90 52.36 52.19 54.10 54.61 53.65 54.20 52.57 49.26 49.14 46.70 47.01 53.22 51.35 52.99 53.49 54.04 50.82 52.77 52.31 52.28 52.61 51.37 49.55 53.37 55.10 55.28 56.38 56.02 57.24 57.88 58.16 57.66 57.66 57.95 58.24 58.72 58.58 57.90 58.25 58.62
51.09 51.16 51.86 51.09 53.72 55.31 55.93 53.63 52.06 52.59 52.42 50.93 48.02 50.31 49.17 50.93 51.07 51.39 52.88 52.71 51.26 49.24 51.80 52.70 50.75 50.75 54.53 53.57 55.61 56.02 56.42 56.45 57.39 56.55 55.82 56.46 56.86 57.80 57.88 57.64 58.64 58.71 58.36 58.41
50.47 50.43 51.38 53.31 53.64 54.02 51.99 49.03 48.94 49.09 47.58 49.52 50.04 48.64 48.81 51.21 49.41 50.60 52.21 51.27 51.14 47.94 50.03 49.89 48.72 49.08 52.62 55.92 56.33 56.68 57.06 56.45 57.19 58.70 59.01 59.00 58.87 57.66 58.01 58.20 58.06 58.17 57.93 57.13
49.85 50.51 50.48 52.37 52.01 50.05 47.31 46.32 47.65 46.45 45.21 48.62 48.75 49.99 50.03 50.79 52.00 51.35 51.25 49.96 49.58 46.06 51.54 49.48 47.20 51.81 54.56 56.06 56.88 58.10 59.19 59.17 58.87 59.52 58.55 58.82 57.78 58.65 58.25 57.39 56.73 56.06 55.87 55.67
51.56 50.30 49.63 49.32 48.21 40.44 42.02 40.69 44.29 44.94 48.70 49.83 49.75 49.01 51.22 50.84 51.43 49.47 49.89 47.69 47.27 50.45 47.85 47.08 50.71 54.30 55.78 57.05 58.00 58.16 59.22 58.79 58.48 58.21 58.49 57.95 56.75 56.49 55.42 54.77 54.90 54.94 54.34 54.23
48.10 46.92 37.04 43.55 42.70 44.50 45.80 46.61 47.64 50.70 50.61 50.41 50.93 50.43 50.37 50.24 48.86 48.21 46.51 48.11 49.61 45.28 43.24 44.50 52.20 55.63 56.40 57.97 58.83 58.10 56.23 57.89 57.23 56.57 56.21 55.15 54.50 54.04 54.13 53.49 53.25 52.32 51.37 50.82
46.43 46.52 39.00 42.55 46.99 48.16 48.73 49.48 49.26 51.35 52.09 52.32 51.08 51.45 51.37 49.82 48.90 48.46 47.36 45.78 43.52 45.03 45.46 50.75 54.57 56.35 57.55 57.86 56.80 55.41 55.41 56.27 56.50 56.16 54.58 53.73 53.55 53.06 52.25 52.09 52.40 51.47 50.86 50.53
46.64 45.29 43.85 46.69 45.70 47.10 48.38 49.26 49.01 50.50 51.76 51.63 51.67 49.44 48.17 46.75 47.60 46.38 44.29 43.58 43.25 48.12 51.77 54.16 55.36 56.21 57.48 57.26 58.55 58.55 57.98 57.01 55.56 54.75 53.91 53.18 52.35 51.67 51.44 51.84 51.09 51.47 51.01 49.68
44.21 43.02 46.38 45.76 45.76 46.10 47.86 47.64 47.21 49.49 49.04 47.24 49.65 45.66 44.60 47.87 46.38 44.81 48.52 47.40 51.08 54.16 54.39 55.16 56.57 57.13 57.46 57.91 58.66 58.74 57.53 56.51 55.28 54.76 54.05 52.84 52.25 51.86 51.07 50.20 50.83 51.07 50.99 50.74
MSLP
1018.59 1017.93 1017.28 1016.52 1015.55 1014.24 1013.11 1012.48 1011.50 1011.59 1011.69 1011.04 1010.92 1009.75 1008.84 1007.97 1006.55 1006.13 1005.53 1005.45 1005.12 1004.88 1005.13 1005.26 1005.51 1005.48 1005.70 1005.75 1005.92 1006.29 1006.81 1006.52 1006.13 1006.50 1007.02 1007.13 1006.67 1006.97 1007.13 1007.05 1007.64 1007.97 1007.76 1007.03
1018.56 1017.86 1017.24 1016.55 1015.80 1015.16 1014.43 1012.80 1011.80 1011.40 1011.04 1010.45 1010.11 1009.45 1008.52 1007.65 1006.48 1005.82 1005.48 1005.10 1004.94 1005.01 1004.90 1005.26 1005.35 1005.35 1005.56 1005.76 1005.88 1005.87 1006.44 1006.67 1006.50 1006.75 1007.13 1007.15 1007.01 1007.37 1007.67 1007.70 1007.81 1007.73 1007.49 1007.06
1018.57 1017.86 1017.23 1016.53 1015.76 1015.10 1014.75 1013.02 1011.78 1011.23 1010.89 1010.61 1009.80 1009.17 1008.17 1007.21 1006.35 1005.83 1005.59 1005.26 1004.91 1004.97 1005.05 1005.20 1005.19 1005.26 1005.56 1005.78 1005.89 1006.11 1006.25 1006.71 1006.49 1006.62 1007.01 1007.39 1007.43 1007.53 1007.72 1007.68 1007.52 1007.36 1007.43 1007.24
1018.62 1017.95 1017.27 1016.48 1015.66 1014.94 1014.71 1013.15 1012.39 1012.01 1010.90 1010.29 1009.79 1009.28 1008.33 1007.35 1006.44 1005.86 1005.62 1005.40 1004.91 1004.49 1004.97 1005.17 1005.22 1005.48 1005.62 1005.98 1006.28 1006.53 1006.47 1006.74 1007.36 1007.47 1007.52 1007.66 1007.61 1007.60 1007.69 1007.72 1007.69 1007.71 1007.73 1008.07
1018.56 1018.01 1017.46 1016.67 1015.68 1014.58 1014.18 1013.76 1013.25 1012.21 1011.25 1010.55 1009.80 1009.21 1008.12 1007.33 1006.47 1006.18 1005.58 1005.35 1005.16 1004.80 1005.06 1005.33 1005.26 1005.46 1005.44 1005.81 1006.33 1006.44 1006.96 1007.57 1007.81 1007.87 1007.99 1007.89 1007.69 1007.56 1007.48 1007.73 1007.91 1008.03 1008.21 1008.29
1018.51 1018.06 1017.60 1017.05 1016.24 1014.94 1014.69 1014.67 1014.04 1013.10 1011.57 1010.56 1009.81 1009.02 1008.30 1007.28 1006.72 1006.34 1005.87 1005.67 1005.34 1005.72 1006.30 1005.98 1006.08 1006.32 1006.28 1006.16 1006.53 1006.83 1007.22 1007.53 1007.89 1007.97 1008.39 1008.14 1007.76 1007.25 1007.46 1007.67 1008.03 1008.22 1008.15 1008.83
1018.41 1018.05 1017.67 1017.31 1016.92 1016.69 1016.50 1015.69 1014.94 1013.27 1011.63 1010.75 1009.89 1009.26 1008.67 1007.77 1007.25 1006.72 1006.43 1006.23 1006.12 1007.25 1006.99 1006.67 1006.48 1006.47 1006.89 1007.04 1007.31 1007.31 1007.62 1008.05 1008.31 1008.09 1008.50 1008.11 1007.34 1007.73 1007.71 1007.69 1008.02 1008.42 1008.84 1009.27
1018.29 1018.03 1017.68 1017.34 1017.04 1016.79 1016.48 1016.05 1015.31 1013.94 1012.35 1011.31 1010.09 1009.48 1008.79 1008.17 1007.67 1007.21 1007.08 1007.13 1007.49 1007.19 1007.20 1006.83 1006.96 1007.32 1007.16 1007.83 1008.27 1008.22 1008.41 1008.38 1008.52 1008.64 1008.13 1008.19 1007.82 1007.66 1007.61 1007.63 1007.84 1008.35 1008.78 1009.46
1018.16 1017.93 1017.67 1017.32 1017.05 1016.71 1016.38 1016.07 1015.75 1014.68 1013.37 1011.65 1010.91 1009.95 1009.43 1008.72 1008.40 1007.93 1007.77 1007.85 1007.82 1007.45 1007.30 1007.41 1007.48 1007.44 1007.69 1007.84 1008.41 1008.90 1008.92 1008.90 1008.58 1009.13 1008.32 1007.59 1006.96 1007.22 1007.61 1007.93 1007.71 1008.11 1008.71 1009.30
1017.97 1017.81 1017.59 1017.26 1017.05 1016.77 1016.52 1016.03 1015.96 1015.08 1013.70 1012.18 1011.49 1010.43 1010.06 1009.74 1009.23 1008.75 1008.66 1008.44 1007.97 1007.75 1007.84 1008.11 1008.39 1008.27 1008.63 1008.54 1008.51 1008.77 1008.98 1009.19 1008.89 1008.79 1008.40 1007.71 1007.76 1007.85 1007.92 1008.15 1008.15 1007.99 1008.49 1009.07
1017.77 1017.68 1017.46 1017.15 1016.96 1016.75 1016.41 1015.89 1015.82 1015.35 1014.21 1012.52 1011.84 1011.09 1010.37 1010.03 1009.74 1009.26 1009.62 1009.55 1009.09 1008.89 1008.71 1008.86 1009.00 1009.02 1009.21 1009.23 1009.17 1009.03 1008.88 1009.09 1009.06 1009.23 1008.82 1008.53 1008.44 1008.49 1008.16 1008.21 1008.28 1008.37 1008.78 1009.13
1017.55 1017.55 1017.35 1017.13 1016.97 1016.75 1016.44 1015.88 1015.70 1015.71 1014.79 1012.91 1012.27 1011.28 1010.75 1010.49 1010.19 1009.99 1010.18 1010.15 1009.92 1009.79 1009.62 1009.93 1009.90 1009.74 1009.93 1009.83 1009.32 1009.74 1009.34 1009.43 1009.34 1009.49 1008.80 1009.11 1009.03 1008.85 1008.64 1008.61 1008.43 1008.71 1008.89 1009.23
1017.33 1017.37 1017.21 1017.02 1016.90 1016.72 1016.52 1016.32 1016.03 1015.46 1014.44 1012.57 1011.71 1010.65 1010.55 1010.60 1010.47 1010.15 1010.19 1010.44 1010.53 1010.48 1010.66 1010.29 1010.33 1010.22 1010.25 1009.76 1009.58 1009.51 1009.57 1009.91 1009.60 1009.74 1009.26 1009.21 1009.23 1009.24 1009.11 1008.96 1008.88 1009.10 1009.23 1009.36
1017.08 1017.17 1017.05 1016.89 1016.79 1016.64 1016.49 1016.32 1016.13 1015.81 1014.92 1013.32 1010.95 1010.36 1010.30 1010.30 1010.21 1010.16 1010.15 1010.20 1010.78 1010.85 1010.96 1010.72 1010.63 1010.57 1010.77 1010.42 1010.33 1009.87 1009.65 1009.98 1009.66 1009.44 1009.47 1009.45 1009.23 1009.22 1009.16 1009.26 1009.35 1009.43 1009.57 1009.71
1016.84 1016.92 1016.87 1016.77 1016.63 1016.46 1016.26 1016.13 1016.01 1015.83 1015.53 1013.76 1011.62 1010.52 1010.25 1010.17 1010.03 1010.01 1010.28 1010.33 1010.56 1010.79 1011.01 1010.97 1010.98 1011.28 1011.30 1011.21 1010.82 1009.77 1009.57 1009.25 1009.24 1008.52 1008.63 1008.71 1008.68 1009.09 1009.38 1009.43 1009.55 1009.74 1009.87 1010.11
1016.63 1016.67 1016.67 1016.58 1016.43 1016.23 1015.96 1015.78 1015.75 1015.65 1015.51 1014.31 1012.42 1011.31 1010.56 1010.18 1010.00 1010.11 1010.40 1010.58 1010.82 1010.97 1010.90 1011.18 1011.44 1011.74 1011.58 1010.95 1010.35 1009.47 1009.40 1009.38 1009.31 1008.96 1008.97 1009.03 1008.98 1009.24 1009.42 1009.54 1009.73 1009.95 1010.12 1010.32
1016.37 1016.41 1016.35 1016.31 1016.27 1016.18 1015.81 1015.75 1015.52 1015.73 1015.50 1014.32 1012.68 1011.24 1010.88 1010.73 1010.39 1010.48 1010.66 1010.97 1011.05 1011.03 1011.31 1011.41 1011.46 1011.78 1011.68 1011.07 1010.05 1009.23 1009.25 1009.31 1009.32 1009.41 1009.37 1009.32 1009.27 1009.16 1009.51 1009.79 1010.10 1010.46 1010.60 1010.79
1016.11 1016.08 1016.00 1015.97 1015.91 1015.96 1015.50 1014.81 1015.01 1015.73 1015.29 1014.46 1013.23 1011.58 1011.12 1010.90 1010.46 1010.62 1011.18 1010.89 1011.05 1011.39 1011.42 1011.79 1011.50 1011.99 1011.76 1010.75 1009.90 1009.61 1009.59 1009.61 1009.48 1009.54 1009.56 1009.34 1009.41 1009.64 1009.96 1010.28 1010.49 1010.66 1010.90 1011.11
1015.86 1015.76 1015.65 1015.66 1015.55 1015.20 1014.98 1015.07 1015.20 1015.29 1015.21 1013.98 1013.29 1012.14 1011.11 1011.09 1011.03 1011.00 1011.21 1011.08 1011.04 1011.85 1011.33 1011.59 1011.69 1011.39 1010.79 1010.05 1009.94 1009.71 1009.58 1009.45 1009.41 1009.62 1009.74 1009.84 1009.86 1010.19 1010.51 1010.76 1011.03 1011.28 1011.52 1011.77
1015.63 1015.64 1015.33 1014.94 1014.87 1014.91 1015.03 1015.24 1014.93 1014.74 1014.37 1014.07 1012.91 1012.61 1011.59 1011.52 1011.12 1011.05 1011.04 1011.07 1011.07 1011.16 1011.38 1011.62 1011.38 1010.54 1010.19 1010.51 1010.39 1010.15 1009.97 1009.83 1009.77 1009.69 1009.96 1010.25 1010.42 1010.68 1011.04 1011.41 1011.75 1012.02 1012.26 1012.47
1015.48 1015.24 1014.96 1014.84 1014.78 1014.64 1014.49 1014.36 1014.24 1014.05 1013.53 1013.12 1012.47 1012.26 1011.72 1011.74 1011.25 1010.84 1011.13 1010.82 1011.07 1010.85 1011.13 1011.17 1010.88 1010.42 1010.62 1010.76 1010.48 1010.20 1010.02 1010.17 1010.19 1010.19 1010.38 1010.69 1010.98 1011.41 1011.71 1012.12 1012.57 1012.80 1012.94 1013.03
1015.35 1015.36 1015.31 1014.91 1014.43 1014.33 1014.07 1013.85 1013.87 1013.34 1012.42 1012.28 1012.00 1011.84 1011.93 1011.84 1011.73 1011.06 1011.34 1010.84 1011.07 1010.63 1011.07 1010.93 1010.41 1010.67 1011.13 1011.13 1011.01 1010.76 1010.55 1010.59 1010.79 1011.09 1011.47 1011.88 1012.05 1012.46 1012.72 1013.05 1013.32 1013.52 1013.61 1013.58
1015.20 1015.16 1014.67 1014.35 1014.46 1014.10 1013.59 1012.94 1012.53 1012.16 1011.76 1011.58 1011.66 1011.61 1011.54 1012.02 1011.81 1011.38 1011.12 1010.79 1010.78 1011.11 1010.89 1010.52 1010.43 1011.14 1011.46 1011.62 1011.58 1011.55 1011.50 1011.52 1011.69 1012.04 1012.31 1012.70 1013.13 1013.56 1013.74 1013.86 1014.04 1014.07 1014.04 1014.04
1014.77 1014.53 1014.69 1014.21 1013.64 1012.98 1012.25 1011.86 1011.47 1011.29 1011.23 1011.15 1011.19 1011.32 1011.35 1011.57 1011.43 1011.34 1010.97 1011.12 1010.96 1010.87 1010.71 1010.44 1010.99 1011.40 1011.81 1011.99 1012.02 1011.99 1012.14 1012.19 1012.49 1012.86 1013.15 1013.47 1013.80 1014.02 1014.26 1014.42 1014.55 1014.57 1014.62 1014.60
1014.57 1014.39 1013.95 1013.61 1012.95 1012.54 1012.22 1011.96 1011.67 1011.32 1011.18 1011.01 1011.00 1011.10 1011.19 1011.28 1011.33 1011.34 1011.27 1011.23 1010.83 1010.74 1010.67 1011.07 1011.49 1011.94 1012.17 1012.19 1012.33 1012.31 1012.59 1012.60 1012.99 1013.41 1013.74 1014.13 1014.39 1014.52 1014.71 1014.94 1014.96 1015.04 1015.00 1014.89
1014.65 1014.51 1013.90 1013.44 1013.07 1012.40 1012.14 1011.86 1011.56 1011.51 1011.17 1011.03 1010.88 1010.75 1010.91 1011.06 1011.07 1011.07 1010.96 1010.93 1010.73 1010.89 1011.20 1011.53 1011.93 1012.23 1012.31 1012.42 1012.50 1012.66 1012.87 1013.15 1013.55 1013.91 1014.20 1014.49 1014.74 1014.90 1015.10 1015.23 1015.37 1015.20 1015.19 1015.11
1014.63 1014.33 1014.07 1013.82 1013.37 1012.85 1012.48 1012.30 1011.92 1011.76 1011.44 1010.94 1010.69 1010.73 1011.03 1011.29 1011.01 1010.87 1010.96 1010.73 1010.76 1010.97 1011.41 1011.81 1012.13 1012.29 1012.47 1012.59 1012.68 1012.91 1013.18 1013.44 1013.76 1014.04 1014.31 1014.55 1014.86 1015.03 1015.05 1015.12 1015.36 1015.39 1015.32 1015.17
Wind_Speed
20 21 21 26 25 28 2 2 3 3 3 2 1 3 4 2 6 6 7 3 4 7 11 8 8 6 3 5 11 12 6 2 0 4 2 3 2 4 1 3 4 1 2 4
19 20 21 24 22 21 5 2 2 2 3 3 3 2 4 5 4 2 1 3 6 4 8 4 6 5 1 9 7 11 10 3 5 3 5 2 3 3 3 4 1 4 4 4
17 19 20 25 23 21 2 2 3 2 1 1 2 1 3 4 3 4 2 3 3 4 4 2 7 6 3 5 4 7 5 4 2 3 3 3 3 2 3 5 4 3 8 11
16 17 19 23 26 20 2 3 2 3 4 4 3 2 3 4 4 2 0 3 2 5 4 3 4 3 5 4 6 4 1 4 2 3 7 3 3 5 6 8 4 7 2 5
15 16 17 23 24 22 1 3 2 1 1 1 3 3 3 3 2 2 1 5 7 7 6 1 7 5 3 2 3 3 2 4 3 4 3 3 5 6 7 5 4 8 6 6
13 14 15 20 19 15 3 2 1 3 2 0 3 2 3 3 4 3 5 3 9 14 5 5 6 5 6 4 3 4 3 7 5 3 2 1 8 8 7 3 3 2 4 2
12 13 13 16 14 10 1 2 2 2 1 2 1 2 3 3 3 1 3 4 3 2 2 4 4 6 7 5 8 5 5 5 1 2 4 7 3 4 6 6 3 5 3 4
10 11 12 14 12 10 1 1 2 2 2 3 2 6 3 2 1 3 4 6 4 4 3 2 4 0 4 4 7 4 1 4 3 4 7 3 2 5 6 6 5 6 9 9
9 9 11 12 11 11 2 2 1 2 3 2 4 4 4 4 3 1 3 3 4 1 4 3 2 3 1 2 3 5 6 5 5 4 5 7 1 7 4 2 7 11 9 12
7 8 10 11 11 11 4 2 1 2 2 1 2 2 3 1 1 1 2 6 4 4 2 3 3 3 1 3 3 3 2 3 6 6 7 3 0 3 6 8 2 11 11 12
5 7 9 11 10 11 6 2 1 3 2 5 4 2 1 0 2 2 4 3 2 2 3 2 2 3 3 2 1 2 3 3 3 3 6 8 2 5 7 3 2 5 6 8
4 6 8 10 9 9 7 1 1 2 4 4 3 7 7 4 4 0 1 3 1 1 3 2 3 3 2 2 3 2 3 2 2 5 2 2 3 4 5 3 4 3 4 4
3 5 8 8 8 8 6 2 3 2 3 4 4 2 2 3 9 8 2 2 2 2 3 2 2 3 2 4 4 2 3 3 3 3 4 3 1 2 3 4 4 5 5 5
2 5 7 7 8 7 5 2 1 2 1 3 2 3 1 1 4 8 3 4 4 4 0 1 1 2 2 1 2 3 2 6 5 3 4 4 5 4 5 6 6 6 4 2
3 4 6 7 8 7 4 3 2 2 3 3 5 9 2 4 3 7 6 6 4 2 2 2 2 2 3 1 1 4 5 5 5 6 5 3 4 8 6 7 5 4 4 3
3 5 6 7 7 8 2 3 3 3 2 3 3 3 3 6 4 7 7 4 3 2 1 1 2 1 2 3 3 4 6 5 5 3 2 3 3 6 5 5 5 4 3 2
4 5 6 7 6 2 2 3 3 2 2 2 4 3 2 3 1 2 2 3 3 1 2 2 1 3 2 2 3 4 2 4 6 5 7 3 5 3 6 2 4 3 1 1
5 6 7 8 8 5 4 1 9 5 2 2 3 3 2 4 2 3 2 3 1 2 2 2 2 3 2 4 8 7 5 2 4 7 1 3 2 3 4 4 3 1 2 4
6 7 9 1 2 2 2 8 13 3 3 2 2 2 2 2 2 1 2 1 3 1 3 2 3 3 5 5 5 5 3 4 1 6 6 2 2 4 3 2 1 3 5 6
5 2 3 2 2 3 7 3 3 3 2 1 3 1 2 2 1 2 3 0 2 3 2 3 3 3 4 4 6 8 5 2 3 5 5 5 5 4 3 3 3 3 4 6
2 2 1 2 4 3 1 2 2 2 3 4 2 5 2 1 2 2 1 3 2 3 4 3 3 3 2 6 5 4 3 4 2 5 8 9 7 5 5 5 5 5 6 7
1 1 0 2 2 2 2 2 1 4 3 4 3 2 4 1 1 2 2 2 3 3 3 3 2 2 2 4 7 10 12 13 13 11 11 10 10 8 7 5 5 6 7 8
2 1 2 1 2 2 5 6 4 3 3 4 4 4 2 2 2 2 2 4 3 2 3 3 0 3 4 6 7 9 9 11 11 11 11 10 9 8 7 6 6 7 8 9
1 3 1 4 4 4 4 3 1 1 2 3 3 3 1 1 2 1 3 2 2 3 4 3 2 5 6 4 4 7 7 9 10 9 8 8 7 6 6 7 7 8 8 9
2 2 3 5 2 2 2 2 3 1 1 2 3 2 1 2 3 0 2 3 3 3 1 0 3 5 5 5 4 5 4 7 7 6 6 6 5 6 6 6 6 7 7 9
1 1 2 1 2 1 1 1 1 2 1 2 1 2 2 2 2 3 3 3 3 1 2 2 4 5 5 3 3 4 5 6 6 5 5 5 5 6 5 6 6 6 7 8
2 2 1 2 3 2 2 2 3 4 2 2 2 2 2 2 2 3 3 2 2 2 2 2 5 6 6 5 4 5 6 6 5 5 5 6 5 5 6 7 7 6 6 6
Wind_Direction
335 339 345 349 349 342 22 311 119 65 207 146 17 202 217 292 269 233 256 221 222 180 172 174 204 211 259 169 154 174 176 218 53 91 333 299 43 93 129 267 172 90 325 276
337 339 345 350 352 355 317 32 89 136 291 184 201 250 260 246 265 267 227 240 216 179 169 154 202 188 71 160 160 156 168 209 148 180 154 127 53 56 79 105 120 204 278 282
338 339 344 350 349 349 259 272 132 132 71 350 179 278 266 271 241 263 257 285 165 151 146 40 164 163 132 157 119 85 119 120 239 268 83 107 170 224 204 258 238 245 242 286
337 341 344 350 349 349 264 359 64 1 181 197 205 233 281 286 301 223 269 198 231 157 127 109 136 154 131 101 152 77 181 114 154 133 136 172 198 241 219 233 255 248 77 268
337 342 347 352 349 342 60 358 349 17 321 262 191 169 232 244 272 266 15 112 83 94 90 333 164 146 154 143 127 91 58 128 152 187 176 195 242 240 240 216 225 249 271 283
337 344 349 357 357 350 19 18 196 282 86 133 200 190 277 267 310 87 60 93 93 69 60 64 67 62 60 53 143 106 131 147 161 219 340 244 263 255 210 217 223 268 255 41
338 344 349 357 5 22 300 335 291 300 114 268 342 323 279 303 307 43 24 27 80 92 10 112 69 61 53 52 45 34 124 120 190 258 160 241 16 301 246 251 224 218 240 180
335 341 347 353 353 5 289 288 307 340 304 311 289 339 349 289 38 69 58 31 9 291 136 143 115 82 145 73 43 31 318 147 139 237 234 341 212 203 175 202 212 194 162 157
329 337 343 348 350 358 341 279 287 292 300 145 311 325 353 20 15 109 72 61 315 311 59 66 131 201 121 192 127 60 84 60 237 155 232 231 253 180 169 180 256 180 175 170
323 330 339 344 348 355 340 290 276 262 288 255 289 351 353 10 15 33 337 350 18 356 80 104 195 184 310 226 206 168 124 115 222 204 239 260 286 116 146 203 41 170 182 176
316 323 336 338 349 352 352 295 291 323 294 278 225 275 302 98 15 20 32 223 136 87 123 198 148 210 155 223 297 222 205 195 197 174 213 245 117 136 210 27 75 151 166 171
306 318 331 336 344 350 360 275 26 318 239 294 291 272 272 261 270 234 33 12 88 79 108 165 137 165 177 215 216 217 191 255 327 242 351 27 285 287 318 224 158 136 137 123
285 316 328 332 331 344 0 305 318 263 286 269 265 214 101 188 221 235 264 181 134 146 9 114 91 210 191 193 216 195 173 163 239 213 182 266 251 231 226 186 119 118 114 114
263 311 326 327 326 331 342 297 357 276 315 290 316 343 282 319 195 191 216 105 109 91 117 85 127 237 226 197 16 264 51 167 175 235 245 266 229 219 153 129 134 127 102 105
260 312 321 319 324 322 300 254 232 262 298 312 297 306 4 314 212 182 169 157 137 138 144 164 185 119 194 78 272 243 194 193 219 257 210 219 199 166 162 159 158 154 167 156
262 303 311 311 323 333 248 194 160 206 241 273 290 356 320 351 83 129 126 107 92 78 138 131 159 108 259 214 231 262 235 237 250 279 214 183 169 162 176 186 174 165 174 204
269 292 301 302 315 320 267 354 66 147 286 268 289 305 47 332 54 79 110 68 90 60 116 192 161 156 232 238 244 233 283 248 241 247 159 156 183 184 181 162 145 148 103 351
277 293 295 290 288 258 268 188 213 199 293 268 275 274 261 5 140 145 10 125 147 60 98 148 202 145 231 245 243 274 270 289 239 181 114 18 112 128 128 132 142 208 279 322
290 299 297 227 192 191 66 101 124 185 287 284 222 269 139 12 87 82 133 253 163 80 212 180 201 158 222 229 260 284 310 237 310 177 207 68 78 119 108 75 8 299 314 323
301 269 210 140 120 335 151 190 193 192 191 221 248 143 243 296 163 119 154 62 126 196 130 142 223 248 289 330 289 277 280 282 177 171 170 134 130 137 114 75 47 9 358 337
193 181 127 21 313 192 192 184 229 164 226 190 228 216 241 129 230 125 333 133 150 216 134 238 184 234 48 353 356 338 237 190 136 89 92 78 78 77 71 64 33 10 353 343
49 18 220 252 172 75 203 208 188 220 239 182 208 184 215 162 265 206 155 158 187 208 132 225 227 101 53 70 69 78 87 95 91 87 85 74 68 51 52 35 5 353 342 334
153 188 127 167 148 137 196 194 198 223 195 192 185 172 175 159 208 101 184 184 176 137 199 225 119 109 126 118 108 88 84 84 83 80 77 71 65 49 33 12 5 352 346 343
181 154 142 200 180 229 202 215 182 178 214 169 180 133 197 121 153 119 175 90 187 208 222 208 135 161 149 146 118 100 87 86 88 84 77 68 52 38 34 19 7 358 353 341
147 177 203 212 268 273 268 273 272 234 257 171 151 125 202 124 128 81 114 159 226 235 237 115 145 156 159 149 133 107 126 109 98 90 82 68 52 48 42 30 15 6 354 349
119 253 266 172 267 185 120 153 198 18 246 163 206 128 155 104 111 168 188 177 220 185 213 171 165 175 194 186 162 147 124 115 119 111 101 94 76 64 58 48 31 19 17 9
176 223 241 261 283 287 338 325 7 340 218 145 129 92 75 112 159 179 185 214 178 176 159 161 175 185 191 193 181 163 144 145 140 132 121 107 102 91 80 57 31 21 25 15